sat.trackr.live / text

‹ back to catalog

STARLINK-4810

NORAD 53869 · 2022-114BD

PAYLOAD ACTIVE UNKNOWN

§ Identity

Operator
Country
US
Launch date
2022-09-19
Launch site
AFETR
Launch vehicle
Mass (kg)
RCS (m²)

Purposes: comms

External: N2YO · Heavens-Above · Gunter

§ Orbital elements

Epoch: 2026-09-20T22:39:00.304992Z

Period
94.01 min
Inclination
53.1589°
Eccentricity
0.0001219
Mean motion
15.31696919 rev/d
Perigee alt
469.9 km
Apogee alt
471.6 km
Semi-major
6,848.9 km
B*
3.9698e-5
RAAN
103.9711°
Arg perigee
91.3559°
Mean anomaly
268.7582°
Rev number
22,291

§ Raw data

STARLINK-48101 53869U 22114BD  26263.94375353  .00000867  00000+0  39698-4 0  99982 53869  53.1589 103.9711 0001219  91.3559 268.7582 15.31696919222915

JSON: /api/v1/satellites/53869 · /tle

For live sub-satellite position, see the globe view (requires WebGL).

§ Visibility from observer

Set your observer location to see the next 7 days of passes ≥ 10°. The values pass through the URL so the page stays shareable.

No JS? Fill the form by hand. The geolocation button needs JavaScript.